Location: Sternwarte Stuttgart
(48.7670°N, 9.1830°E)
Time: 21:43:37
(UTC+01:00)

CZ-2C R/B - Pass Details

Date: 24 January 2019
Orbit: 668 x 784 km, 98.1° (Epoch: 16 February)

Event Time Altitude Azimuth Distance (km) Brightness Sun altitude
Rises 06:14:53 0° 6° (N) 3,095 5.6 -17.7°
Reaches altitude 10° 06:17:15 10° 358° (N) 2,190 4.7 -17.3°
Maximum altitude 06:21:34 35° 294° (WNW) 1,171 2.9 -16.6°
Enters shadow 06:25:27 13° 233° (SW) 2,048 4.3 -15.9°
